Home   Weather   Merseburg   Past weeks

Flag for Germany Past Weather in Merseburg, Saxony-Anhalt, Germany — Yesterday and Last 2 Weeks

Now
37 °F

Clear.


Feels Like: 28 °F
Forecast: 37 / 46 °F
Wind: 15 mph from Southwest

Location: Leipzig-Schkeuditz

Current Time: Dec 8, 2016 at 1:21:49 am

Latest Report: Dec 8, 2016 at 12:50 am


Visibility: 10 mi

Pressure: 30.39 "Hg

Humidity: 81%

Dew Point: 32 °F

Location of MerseburgLocation

Past Weather in Merseburg — Graph

°F

Merseburg Temperature Yesterday

Maximum temperature yesterday: 37 °F (at 6:20 pm)
Minimum temperature yesterday: 21 °F (at 6:20 am)
Average temperature yesterday: 30 °F

High & Low Weather Summary for the Past Weeks

 TemperatureHumidityPressure
High54 °F (Nov 23, 1:20 pm)100% (Nov 23, 1:20 am)30.57 "Hg (Nov 23, 1:20 am)
Low19 °F (Dec 5, 2:50 am)60% (Nov 30, 11:50 am)29.89 "Hg (Dec 2, 12:50 am)
Average33 °F89%30.26 "Hg
* Reported Nov 23 12:20 am — Dec 8 12:20 am, Merseburg, Weather by CustomWeather, © 2016

Note: Actual official high and low records may vary slightly from our data, if they occured in-between our weather recording intervals... More about our weather records

Advertising

Merseburg Weather History for the Previous 24 Hours

Scroll right to see more
 ConditionsComfort  
Time TempWeatherWind HumidityBarometerVisibility
12:20 am
Thu, Dec 8
37 °FClear.13 mph81%30.42 "Hg10 mi
11:50 pm
Wed, Dec 7
37 °FClear.13 mph81%30.42 "Hg10 mi
11:20 pm37 °FClear.12 mph81%30.42 "Hg10 mi
10:50 pm37 °FClear.14 mph81%30.42 "Hg10 mi
10:20 pm37 °FClear.14 mph81%30.42 "Hg10 mi
9:50 pm37 °FClear.15 mph81%30.42 "Hg10 mi
9:20 pm37 °FClear.14 mph81%30.42 "HgN/A
8:50 pm37 °FClear.13 mph81%30.42 "HgN/A
8:20 pm37 °FClear.12 mph81%30.45 "Hg10 mi
7:50 pm37 °FClear.10 mph81%30.45 "Hg10 mi
7:20 pm37 °FPassing clouds.13 mph81%30.45 "HgN/A
6:50 pm36 °FClear.13 mph87%30.45 "Hg10 mi
6:20 pm37 °FClear.13 mph81%30.42 "Hg10 mi
5:50 pm36 °FClear.13 mph81%30.45 "Hg10 mi
5:20 pm36 °FClear.12 mph81%30.45 "Hg10 mi
4:50 pm36 °FClear.13 mph81%30.45 "Hg10 mi
4:20 pm36 °FClear.14 mph81%30.45 "Hg10 mi
3:50 pm36 °FSunny.13 mph81%30.45 "Hg10 mi
3:20 pm36 °FSunny.13 mph75%30.45 "Hg10 mi
2:50 pm34 °FSunny.14 mph81%30.45 "Hg10 mi
2:20 pm34 °FSunny.15 mph81%30.45 "Hg10 mi
1:50 pm34 °FSunny.15 mph75%30.45 "Hg10 mi
1:20 pm32 °FSunny.14 mph75%30.45 "Hg10 mi
12:50 pm32 °FSunny.15 mph75%30.45 "Hg10 mi
12:20 pm32 °FSunny.16 mph75%30.45 "Hg10 mi
11:50 am30 °FBroken clouds.14 mph75%30.48 "HgN/A
11:20 am28 °FSunny.12 mph80%30.48 "Hg10 mi
10:50 am27 °FBroken clouds.10 mph80%30.51 "HgN/A
10:20 am27 °FSunny.9 mph80%30.51 "Hg10 mi
9:50 am25 °FSunny.8 mph86%30.51 "Hg10 mi
9:20 am23 °FSunny.7 mph93%30.51 "Hg10 mi
8:50 am23 °FSunny.7 mph86%30.51 "Hg10 mi
8:20 am23 °FSunny.9 mph86%30.51 "Hg10 mi
7:50 am21 °FClear.7 mph93%30.51 "Hg10 mi
7:20 am21 °FClear.7 mph93%30.51 "Hg10 mi
6:50 am21 °FClear.7 mph93%30.51 "Hg10 mi
6:20 am21 °FClear.6 mph93%30.51 "Hg10 mi
5:50 am23 °FClear.7 mph93%30.51 "Hg10 mi
5:20 am25 °FPassing clouds.8 mph93%30.51 "HgN/A
4:50 am25 °FClear.8 mph93%30.54 "Hg10 mi
4:20 am27 °FClear.7 mph86%30.54 "Hg10 mi
3:50 am25 °FClear.9 mph93%30.54 "Hg10 mi
3:20 am23 °FClear.8 mph93%30.54 "Hg10 mi
2:50 am25 °FClear.7 mph86%30.54 "Hg10 mi
2:20 am25 °FPassing clouds.8 mph93%30.54 "HgN/A
1:50 am27 °FPassing clouds.6 mph93%30.54 "HgN/A
1:20 am25 °FPassing clouds.5 mph93%30.54 "HgN/A
Weather by CustomWeather, © 2016

See weather overviewHow to use our weather pages